• In Hungary
  • List of Countries
  • For 7 days
  • Water Temperature
  • Satellite Maps
  • Weather Map
  • News
  • Weather Widgets
  • user-avatar
    Login

    Hourly Weather Natitingou

    Today, 13 December, Wednesday

    Time Temperature Precipitation Wind Pressure Humidity
    00:00 +25°C° 0 mm 2 mps 718 mmHg 25%
    01:00 +25°C° 0 mm 2 mps 718 mmHg 26%
    02:00 +24°C° 0 mm 2 mps 718 mmHg 26%
    03:00 +24°C° 0 mm 2 mps 718 mmHg 27%
    04:00 +24°C° 0 mm 2 mps 718 mmHg 27%
    05:00 +24°C° 0 mm 2 mps 718 mmHg 28%
    06:00 +24°C° 0 mm 2 mps 718 mmHg 31%
    07:00 +26°C° 0 mm 2 mps 718 mmHg 29%
    08:00 +28°C° 0 mm 3 mps 719 mmHg 26%
    09:00 +31°C° 0 mm 3 mps 719 mmHg 24%
    10:00 +33°C° 0 mm 3 mps 719 mmHg 22%
    11:00 +35°C° 0 mm 3 mps 718 mmHg 20%
    12:00 +37°C° 0 mm 3 mps 718 mmHg 18%
    13:00 +38°C° 0 mm 3 mps 717 mmHg 18%
    14:00 +38°C° 0 mm 3 mps 717 mmHg 18%
    15:00 +38°C° 0 mm 3 mps 716 mmHg 17%
    16:00 +37°C° 0 mm 3 mps 716 mmHg 19%
    17:00 +35°C° 0 mm 2 mps 716 mmHg 20%
    18:00 +32°C° 0 mm 2 mps 716 mmHg 21%
    19:00 +31°C° 0 mm 2 mps 717 mmHg 21%
    20:00 +30°C° 0 mm 2 mps 717 mmHg 21%
    21:00 +29°C° 0 mm 2 mps 718 mmHg 21%
    22:00 +29°C° 0 mm 2 mps 717 mmHg 22%
    23:00 +28°C° 0 mm 2 mps 717 mmHg 22%

    Tomorrow, 14 December, Thursday

    Time Temperature Precipitation Wind Pressure Humidity
    00:00 +28°C° 0 mm 2 mps 717 mmHg 22%
    01:00 +27°C° 0 mm 2 mps 717 mmHg 22%
    02:00 +27°C° 0 mm 2 mps 717 mmHg 22%
    03:00 +27°C° 0 mm 2 mps 716 mmHg 23%
    04:00 +26°C° 0 mm 2 mps 717 mmHg 23%
    05:00 +26°C° 0 mm 2 mps 717 mmHg 24%
    06:00 +25°C° 0 mm 2 mps 717 mmHg 24%
    07:00 +28°C° 0 mm 2 mps 717 mmHg 21%
    08:00 +31°C° 0 mm 2 mps 718 mmHg 18%
    09:00 +34°C° 0 mm 3 mps 719 mmHg 15%
    10:00 +36°C° 0 mm 3 mps 718 mmHg 14%
    11:00 +37°C° 0 mm 3 mps 718 mmHg 12%
    12:00 +39°C° 0 mm 3 mps 718 mmHg 11%
    13:00 +39°C° 0 mm 3 mps 717 mmHg 11%
    14:00 +39°C° 0 mm 3 mps 716 mmHg 11%
    15:00 +40°C° 0 mm 3 mps 715 mmHg 11%
    16:00 +38°C° 0 mm 2 mps 715 mmHg 12%
    17:00 +36°C° 0 mm 2 mps 715 mmHg 14%
    18:00 +33°C° 0 mm 1 mps 715 mmHg 15%
    19:00 +32°C° 0 mm 1 mps 716 mmHg 16%
    20:00 +31°C° 0 mm 1 mps 716 mmHg 17%
    21:00 +30°C° 0 mm 1 mps 717 mmHg 17%
    22:00 +30°C° 0 mm 1 mps 717 mmHg 18%
    23:00 +29°C° 0 mm 1 mps 716 mmHg 19%

    Day after tomorrow, 15 December, Friday

    Time Temperature Precipitation Wind Pressure Humidity
    00:00 +29°C° 0 mm 1 mps 716 mmHg 20%
    01:00 +28°C° 0 mm 1 mps 716 mmHg 22%
    02:00 +27°C° 0 mm 1 mps 716 mmHg 23%
    03:00 +27°C° 0 mm 1 mps 716 mmHg 25%
    04:00 +27°C° 0 mm 1 mps 716 mmHg 29%
    05:00 +26°C° 0 mm 1 mps 716 mmHg 33%
    06:00 +26°C° 0 mm 1 mps 716 mmHg 36%
    07:00 +28°C° 0 mm 1 mps 717 mmHg 38%
    08:00 +30°C° 0 mm 2 mps 718 mmHg 40%
    09:00 +32°C° 0 mm 2 mps 718 mmHg 41%
    10:00 +35°C° 0 mm 2 mps 718 mmHg 36%
    11:00 +36°C° 0 mm 2 mps 718 mmHg 31%
    12:00 +38°C° 0 mm 2 mps 717 mmHg 25%
    13:00 +39°C° 0 mm 1 mps 717 mmHg 23%
    14:00 +40°C° 0 mm 1 mps 716 mmHg 20%
    15:00 +37°C° 0 mm 0 mps 715 mmHg 18%
    16:00 +36°C° 0 mm 0 mps 715 mmHg 19%
    17:00 +34°C° 0 mm 0 mps 715 mmHg 21%
    18:00 +32°C° 0 mm 0 mps 715 mmHg 23%
    19:00 +31°C° 0 mm 0 mps 716 mmHg 24%
    20:00 +31°C° 0 mm 0 mps 716 mmHg 25%
    21:00 +30°C° 0 mm 0 mps 717 mmHg 26%
    22:00 +30°C° 0 mm 0 mps 717 mmHg 27%
    23:00 +31°C° 0 mm 1 mps 716 mmHg 27%

    16 December, Saturday

    Time Temperature Precipitation Wind Pressure Humidity
    00:00 +31°C° 0 mm 1 mps 716 mmHg 27%
    01:00 +31°C° 0 mm 1 mps 716 mmHg 27%
    02:00 +30°C° 0 mm 1 mps 716 mmHg 27%
    03:00 +30°C° 0 mm 1 mps 715 mmHg 26%
    04:00 +29°C° 0 mm 1 mps 716 mmHg 27%
    05:00 +29°C° 0 mm 1 mps 716 mmHg 28%
    06:00 +28°C° 0 mm 1 mps 716 mmHg 28%
    07:00 +30°C° 0 mm 1 mps 717 mmHg 27%
    08:00 +32°C° 0 mm 1 mps 718 mmHg 26%
    09:00 +34°C° 0 mm 2 mps 718 mmHg 24%
    10:00 +36°C° 0 mm 1 mps 718 mmHg 21%
    11:00 +39°C° 0 mm 1 mps 718 mmHg 18%
    12:00 +41°C° 0 mm 1 mps 717 mmHg 14%
    13:00 +41°C° 0 mm 1 mps 717 mmHg 14%
    14:00 +40°C° 0 mm 1 mps 716 mmHg 13%
    15:00 +40°C° 0 mm 2 mps 715 mmHg 12%
    16:00 +37°C° 0 mm 1 mps 715 mmHg 14%
    17:00 +36°C° 0 mm 1 mps 715 mmHg 15%
    18:00 +34°C° 0 mm 1 mps 715 mmHg 16%
    19:00 +33°C° 0 mm 1 mps 716 mmHg 17%
    20:00 +32°C° 0 mm 1 mps 716 mmHg 19%
    21:00 +31°C° 0 mm 1 mps 717 mmHg 20%
    22:00 +30°C° 0 mm 1 mps 716 mmHg 20%
    23:00 +29°C° 0 mm 1 mps 716 mmHg 21%

    17 December, Sunday

    Time Temperature Precipitation Wind Pressure Humidity
    00:00 +29°C° 0 mm 1 mps 716 mmHg 22%
    01:00 +28°C° 0 mm 1 mps 716 mmHg 22%
    02:00 +28°C° 0 mm 1 mps 716 mmHg 23%
    03:00 +27°C° 0 mm 1 mps 715 mmHg 23%
    04:00 +27°C° 0 mm 1 mps 716 mmHg 23%
    05:00 +26°C° 0 mm 1 mps 716 mmHg 23%
    06:00 +26°C° 0 mm 1 mps 716 mmHg 23%
    07:00 +28°C° 0 mm 1 mps 717 mmHg 21%
    08:00 +31°C° 0 mm 1 mps 718 mmHg 19%
    09:00 +33°C° 0 mm 1 mps 718 mmHg 18%
    10:00 +35°C° 0 mm 1 mps 718 mmHg 15%
    11:00 +37°C° 0 mm 1 mps 718 mmHg 13%
    12:00 +40°C° 0 mm 1 mps 717 mmHg 11%
    13:00 +40°C° 0 mm 1 mps 717 mmHg 10%
    14:00 +40°C° 0 mm 1 mps 716 mmHg 10%
    15:00 +40°C° 0 mm 1 mps 715 mmHg 9%
    16:00 +37°C° 0 mm 1 mps 715 mmHg 10%
    17:00 +35°C° 0 mm 1 mps 715 mmHg 11%
    18:00 +33°C° 0 mm 1 mps 715 mmHg 12%
    19:00 +32°C° 0 mm 1 mps 716 mmHg 13%
    20:00 +31°C° 0 mm 1 mps 716 mmHg 13%
    21:00 +30°C° 0 mm 1 mps 716 mmHg 13%
    22:00 +30°C° 0 mm 1 mps 716 mmHg 14%
    23:00 +29°C° 0 mm 1 mps 716 mmHg 14%

    18 December, Monday

    Time Temperature Precipitation Wind Pressure Humidity
    00:00 +28°C° 0 mm 1 mps 716 mmHg 14%
    01:00 +28°C° 0 mm 1 mps 716 mmHg 15%
    02:00 +27°C° 0 mm 1 mps 715 mmHg 15%
    03:00 +26°C° 0 mm 1 mps 715 mmHg 15%
    04:00 +26°C° 0 mm 1 mps 715 mmHg 15%
    05:00 +25°C° 0 mm 1 mps 716 mmHg 15%
    06:00 +25°C° 0 mm 1 mps 716 mmHg 15%
    07:00 +27°C° 0 mm 1 mps 717 mmHg 16%
    08:00 +30°C° 0 mm 1 mps 718 mmHg 16%
    09:00 +34°C° 0 mm 2 mps 718 mmHg 17%
    10:00 +35°C° 0 mm 1 mps 718 mmHg 15%
    11:00 +37°C° 0 mm 1 mps 717 mmHg 13%
    12:00 +41°C° 0 mm 1 mps 717 mmHg 11%
    13:00 +38°C° 0 mm 0 mps 716 mmHg 11%
    14:00 +38°C° 0 mm 0 mps 715 mmHg 11%
    15:00 +38°C° 0 mm 0 mps 715 mmHg 10%
    16:00 +36°C° 0 mm 0 mps 715 mmHg 12%
    17:00 +33°C° 0 mm 0 mps 715 mmHg 13%
    18:00 +31°C° 0 mm 0 mps 715 mmHg 14%
    19:00 +32°C° 0 mm 1 mps 715 mmHg 14%
    20:00 +31°C° 0 mm 1 mps 715 mmHg 14%
    21:00 +31°C° 0 mm 1 mps 716 mmHg 14%
    22:00 +30°C° 0 mm 1 mps 716 mmHg 14%
    23:00 +30°C° 0 mm 1 mps 716 mmHg 14%
    Show more